Location: Izdebno
(52.6670°N, 16.2170°E)
Time: 02:32:59
(UTC+02:00)

Transit 4A - Pass Details

Date: 26 February 2024
Orbit: 871 x 972 km, 66.8° (Epoch: 22 April)

Event Time Altitude Azimuth Distance (km) Brightness Sun altitude
Rises 06:54:15 0° 312° (NW) 3,536 10.4 -0.2°
Reaches altitude 10° 06:57:14 10° 325° (NW) 2,578 9.8 0.3°
Maximum altitude 07:02:10 26° 21° (NNE) 1,670 9.4 1.0°
Drops below altitude 10° 07:07:02 10° 77° (ENE) 2,534 11.4 1.7°
Sets 07:09:55 0° 90° (E) 3,464 12.7 2.1°
